LGX43B LIRN-LIMF

Flight info

Callsign LGX43B
Flight time 1h 17m
Altitude 34000
Route VEXUV DCT PNZ DCT RIFFI DCT ELVIN DCT LUNAK DCT RAVAL DCT MEDAL DCT GILIO DCT ELB DCT BAKRO DCT EVROG DCT UNITA DCT LAGEN
Aircraft A20N/M-SDE2FGHIJ1RWXY/HB1

Departure

Time 2026-05-07 17:12
Airport Naples International Airport (LIRN)

Arrival

Time 2026-05-07 18:29
Airport Turin Airport (LIMF)
Time Latitude Longitude Altitude Speed Heading
2026-05-07 17:09 40.88014 14.28248 292 ft 0 kts 333°
2026-05-07 17:09 40.88015 14.28248 292 ft 1 kts 333°
2026-05-07 17:10 40.88054 14.28260 290 ft 7 kts 40°
2026-05-07 17:10 40.88094 14.28312 290 ft 9 kts 46°
2026-05-07 17:10 40.88152 14.28367 288 ft 11 kts 31°
2026-05-07 17:10 40.88234 14.28412 285 ft 14 kts
2026-05-07 17:11 40.88308 14.28456 280 ft 0 kts 54°
2026-05-07 17:11 40.88324 14.28484 278 ft 23 kts 54°
2026-05-07 17:11 40.88565 14.28974 263 ft 102 kts 56°
2026-05-07 17:12 40.89061 14.29985 242 ft 158 kts 57°
2026-05-07 17:12 40.89662 14.31296 937 ft 154 kts 57°
2026-05-07 17:12 40.90271 14.32622 1494 ft 166 kts 56°
2026-05-07 17:12 40.90899 14.33969 2179 ft 171 kts 56°
2026-05-07 17:13 40.91546 14.35344 2695 ft 185 kts 57°
2026-05-07 17:13 40.92255 14.36848 3155 ft 202 kts 57°
2026-05-07 17:13 40.93021 14.38466 3620 ft 218 kts 55°
2026-05-07 17:13 40.94143 14.39898 4170 ft 231 kts 27°
2026-05-07 17:14 40.95688 14.40421 4901 ft 238 kts 358°
2026-05-07 17:14 40.97250 14.39887 5733 ft 241 kts 329°
2026-05-07 17:14 40.98458 14.38363 6509 ft 246 kts 298°
2026-05-07 17:14 40.98923 14.36192 7293 ft 248 kts 266°
2026-05-07 17:15 40.98489 14.34039 8109 ft 247 kts 236°
2026-05-07 17:15 40.97337 14.32409 8959 ft 245 kts 215°
2026-05-07 17:15 40.95904 14.31194 9789 ft 246 kts 210°
2026-05-07 17:15 40.94525 14.30139 10531 ft 248 kts 210°
2026-05-07 17:16 40.93216 14.29119 11251 ft 249 kts 210°
2026-05-07 17:16 40.91803 14.27981 12036 ft 249 kts 211°
2026-05-07 17:16 40.90335 14.26776 12829 ft 250 kts 212°
2026-05-07 17:16 40.88880 14.25567 13607 ft 251 kts 212°
2026-05-07 17:17 40.87312 14.24262 14421 ft 252 kts 211°
2026-05-07 17:17 40.85496 14.23423 15173 ft 259 kts 185°
2026-05-07 17:17 40.83557 14.23768 15730 ft 275 kts 168°
2026-05-07 17:17 40.81447 14.24578 16114 ft 294 kts 167°
2026-05-07 17:18 40.79253 14.25451 16497 ft 310 kts 167°
2026-05-07 17:18 40.76936 14.26358 17122 ft 318 kts 167°
2026-05-07 17:18 40.74706 14.27224 17799 ft 323 kts 167°
2026-05-07 17:18 40.72516 14.27808 18425 ft 321 kts 183°
2026-05-07 17:19 40.70305 14.27282 19089 ft 316 kts 206°
2026-05-07 17:19 40.68297 14.25552 19813 ft 314 kts 222°
2026-05-07 17:19 40.67011 14.24085 20328 ft 316 kts 223°
2026-05-07 17:19 40.65803 14.22685 20766 ft 318 kts 223°
2026-05-07 17:20 40.63962 14.20558 21437 ft 322 kts 223°
2026-05-07 17:20 40.62076 14.18393 22121 ft 325 kts 223°
2026-05-07 17:20 40.60191 14.16240 22796 ft 327 kts 223°
2026-05-07 17:20 40.58352 14.14145 23437 ft 329 kts 224°
2026-05-07 17:21 40.56523 14.12067 24058 ft 332 kts 224°
2026-05-07 17:21 40.54719 14.10019 24665 ft 333 kts 224°
2026-05-07 17:21 40.52831 14.07877 25290 ft 334 kts 225°
2026-05-07 17:21 40.51149 14.05593 25893 ft 331 kts 235°
2026-05-07 17:22 40.49835 14.02926 26539 ft 328 kts 245°
2026-05-07 17:22 40.48867 13.99938 27141 ft 327 kts 250°
2026-05-07 17:22 40.48069 13.97132 27675 ft 328 kts 251°
2026-05-07 17:22 40.47219 13.94108 28217 ft 328 kts 251°
2026-05-07 17:23 40.46370 13.91093 28718 ft 329 kts 251°
2026-05-07 17:23 40.45541 13.88154 29181 ft 330 kts 251°
2026-05-07 17:23 40.44749 13.85335 29605 ft 331 kts 253°
2026-05-07 17:23 40.44191 13.82302 30013 ft 332 kts 262°
2026-05-07 17:24 40.44067 13.79273 30408 ft 333 kts 270°
2026-05-07 17:24 40.44335 13.76326 30790 ft 336 kts 278°
2026-05-07 17:24 40.45023 13.73326 30998 ft 347 kts 287°
2026-05-07 17:24 40.46179 13.70401 31143 ft 361 kts 296°
2026-05-07 17:25 40.47677 13.67731 31288 ft 371 kts 301°
2026-05-07 17:25 40.49292 13.65045 31427 ft 377 kts 301°
2026-05-07 17:25 40.50942 13.62333 31559 ft 383 kts 301°
2026-05-07 17:25 40.52626 13.59571 31690 ft 388 kts 301°
2026-05-07 17:26 40.54304 13.56821 31811 ft 393 kts 301°
2026-05-07 17:26 40.56034 13.53983 31932 ft 398 kts 301°
2026-05-07 17:26 40.57777 13.51124 32042 ft 403 kts 301°
2026-05-07 17:26 40.59526 13.48253 32152 ft 406 kts 301°
2026-05-07 17:27 40.61308 13.45325 32336 ft 408 kts 301°
2026-05-07 17:27 40.63073 13.42426 32591 ft 407 kts 301°
2026-05-07 17:27 40.64835 13.39530 32849 ft 406 kts 301°
2026-05-07 17:27 40.66604 13.36614 33086 ft 406 kts 301°
2026-05-07 17:28 40.68344 13.33740 33314 ft 406 kts 300°
2026-05-07 17:28 40.70104 13.30831 33574 ft 405 kts 300°
2026-05-07 17:28 40.71854 13.27938 33813 ft 404 kts 300°
2026-05-07 17:28 40.73600 13.25047 33906 ft 404 kts 300°
2026-05-07 17:29 40.77117 13.19217 33912 ft 407 kts 299°
2026-05-07 17:29 40.80629 13.13371 33915 ft 407 kts 299°
2026-05-07 17:30 40.84130 13.07531 33928 ft 407 kts 299°
2026-05-07 17:30 40.87630 13.01685 33936 ft 407 kts 299°
2026-05-07 17:31 40.91223 12.95865 33940 ft 411 kts 302°
2026-05-07 17:31 40.95163 12.90359 33941 ft 414 kts 304°
2026-05-07 17:32 40.99196 12.84896 33941 ft 414 kts 304°
2026-05-07 17:32 41.03221 12.79439 33941 ft 414 kts 304°
2026-05-07 17:33 41.07225 12.74000 33939 ft 415 kts 304°
2026-05-07 17:33 41.11300 12.68454 33938 ft 419 kts 303°
2026-05-07 17:34 41.15290 12.63010 33941 ft 419 kts 303°
2026-05-07 17:34 41.19340 12.57476 33942 ft 419 kts 303°
2026-05-07 17:35 41.23413 12.51900 33944 ft 419 kts 304°
2026-05-07 17:35 41.27459 12.46352 33956 ft 423 kts 304°
2026-05-07 17:36 41.31560 12.40724 33963 ft 424 kts 304°
2026-05-07 17:36 41.35663 12.35095 33966 ft 424 kts 304°
2026-05-07 17:37 41.39491 12.29828 33968 ft 423 kts 304°
2026-05-07 17:37 41.43590 12.24175 33967 ft 424 kts 303°
2026-05-07 17:38 41.47688 12.18513 33967 ft 427 kts 303°
2026-05-07 17:38 41.51805 12.12809 33968 ft 427 kts 303°
2026-05-07 17:39 41.55905 12.07128 33968 ft 427 kts 303°
2026-05-07 17:39 41.60017 12.01419 33957 ft 427 kts 303°
2026-05-07 17:40 41.64143 11.95678 33949 ft 427 kts 303°
2026-05-07 17:40 41.68245 11.89958 33945 ft 427 kts 303°
2026-05-07 17:41 41.72339 11.84225 33944 ft 427 kts 303°
2026-05-07 17:41 41.76407 11.78477 33948 ft 425 kts 303°
2026-05-07 17:42 41.80345 11.72900 33943 ft 423 kts 304°
2026-05-07 17:42 41.84408 11.67167 33941 ft 427 kts 305°
2026-05-07 17:43 41.88514 11.61391 33943 ft 428 kts 305°
2026-05-07 17:43 41.92363 11.55965 33943 ft 428 kts 305°
2026-05-07 17:44 41.96385 11.50277 33950 ft 428 kts 305°
2026-05-07 17:44 42.00457 11.44506 33985 ft 428 kts 305°
2026-05-07 17:45 42.04539 11.38704 34008 ft 427 kts 305°
2026-05-07 17:45 42.08617 11.32896 34020 ft 427 kts 304°
2026-05-07 17:46 42.12693 11.27080 34021 ft 427 kts 304°
2026-05-07 17:46 42.16767 11.21255 34022 ft 427 kts 304°
2026-05-07 17:47 42.20834 11.15426 34022 ft 427 kts 304°
2026-05-07 17:47 42.24897 11.09593 34022 ft 427 kts 304°
2026-05-07 17:48 42.28942 11.03760 34021 ft 428 kts 305°
2026-05-07 17:48 42.33008 10.97903 34022 ft 430 kts 306°
2026-05-07 17:49 42.37082 10.92024 34023 ft 430 kts 306°
2026-05-07 17:49 42.41167 10.86120 34023 ft 430 kts 306°
2026-05-07 17:50 42.45240 10.80221 34023 ft 430 kts 306°
2026-05-07 17:50 42.49317 10.74303 34023 ft 430 kts 306°
2026-05-07 17:51 42.53376 10.68396 34006 ft 430 kts 306°
2026-05-07 17:51 42.57461 10.62444 33986 ft 431 kts 306°
2026-05-07 17:52 42.61527 10.56507 33975 ft 431 kts 306°
2026-05-07 17:52 42.65584 10.50570 33971 ft 431 kts 306°
2026-05-07 17:53 42.69652 10.44602 33970 ft 431 kts 306°
2026-05-07 17:53 42.73913 10.38824 33970 ft 436 kts 310°
2026-05-07 17:54 42.78562 10.33507 33972 ft 438 kts 313°
2026-05-07 17:54 42.83299 10.28285 33970 ft 438 kts 313°
2026-05-07 17:55 42.88000 10.23094 33971 ft 438 kts 313°
2026-05-07 17:55 42.92729 10.17856 33982 ft 438 kts 313°
2026-05-07 17:56 42.97419 10.12650 33990 ft 438 kts 313°
2026-05-07 17:56 43.02126 10.07413 33993 ft 438 kts 313°
2026-05-07 17:57 43.06050 10.03039 33994 ft 438 kts 313°
2026-05-07 17:57 43.11553 9.96891 33993 ft 438 kts 313°
2026-05-07 17:58 43.16164 9.91728 33994 ft 438 kts 313°
2026-05-07 17:58 43.20853 9.86468 33994 ft 438 kts 313°
2026-05-07 17:59 43.25556 9.81185 33994 ft 438 kts 313°
2026-05-07 17:59 43.30306 9.75827 33993 ft 444 kts 314°
2026-05-07 18:00 43.35045 9.70483 33994 ft 445 kts 314°
2026-05-07 18:00 43.39816 9.65103 33995 ft 444 kts 313°
2026-05-07 18:01 43.44572 9.59712 33995 ft 444 kts 313°
2026-05-07 18:01 43.49323 9.54315 33994 ft 444 kts 313°
2026-05-07 18:02 43.56463 9.46185 33994 ft 444 kts 313°
2026-05-07 18:03 43.61175 9.40807 33994 ft 444 kts 313°
2026-05-07 18:03 43.65927 9.35371 33994 ft 444 kts 313°
2026-05-07 18:04 43.70657 9.29950 33995 ft 443 kts 313°
2026-05-07 18:04 43.75326 9.24587 33995 ft 443 kts 313°
2026-05-07 18:05 43.80059 9.19146 33996 ft 438 kts 312°
2026-05-07 18:05 43.82392 9.16456 33876 ft 438 kts 312°
2026-05-07 18:05 43.84719 9.13767 33625 ft 438 kts 312°
2026-05-07 18:05 43.87056 9.11066 33375 ft 438 kts 312°
2026-05-07 18:06 43.89403 9.08350 33122 ft 435 kts 312°
2026-05-07 18:06 43.91690 9.05710 32833 ft 424 kts 312°
2026-05-07 18:06 43.93998 9.03036 32340 ft 422 kts 312°
2026-05-07 18:06 43.96247 9.00424 31724 ft 421 kts 312°
2026-05-07 18:07 43.98536 8.97763 31025 ft 421 kts 312°
2026-05-07 18:07 44.00752 8.95184 30304 ft 421 kts 312°
2026-05-07 18:07 44.02996 8.92570 29540 ft 421 kts 312°
2026-05-07 18:07 44.05239 8.89948 28727 ft 423 kts 313°
2026-05-07 18:08 44.07491 8.87311 27781 ft 428 kts 314°
2026-05-07 18:08 44.09760 8.84652 26735 ft 435 kts 314°
2026-05-07 18:08 44.12105 8.81902 25606 ft 443 kts 315°
2026-05-07 18:08 44.14450 8.79158 24726 ft 443 kts 316°
2026-05-07 18:09 44.16793 8.76420 23959 ft 442 kts 316°
2026-05-07 18:09 44.19139 8.73678 23226 ft 440 kts 317°
2026-05-07 18:09 44.21455 8.70967 22498 ft 438 kts 317°
2026-05-07 18:09 44.23799 8.68221 21786 ft 436 kts 317°
2026-05-07 18:10 44.26085 8.65539 21105 ft 433 kts 318°
2026-05-07 18:10 44.28379 8.62838 20415 ft 431 kts 318°
2026-05-07 18:10 44.30672 8.60139 19749 ft 428 kts 318°
2026-05-07 18:10 44.32948 8.57456 19102 ft 425 kts 318°
2026-05-07 18:11 44.35195 8.54803 18469 ft 422 kts 319°
2026-05-07 18:11 44.36671 8.53059 18056 ft 420 kts 318°
2026-05-07 18:11 44.39521 8.49412 17235 ft 415 kts 314°
2026-05-07 18:11 44.41505 8.46499 16626 ft 411 kts 311°
2026-05-07 18:12 44.43393 8.43525 16063 ft 406 kts 310°
2026-05-07 18:12 44.45227 8.40593 15686 ft 395 kts 310°
2026-05-07 18:12 44.47052 8.37671 15412 ft 378 kts 310°
2026-05-07 18:12 44.48711 8.35019 15210 ft 348 kts 310°
2026-05-07 18:13 44.50141 8.32735 15021 ft 323 kts 309°
2026-05-07 18:13 44.51154 8.31116 14887 ft 308 kts 309°
2026-05-07 18:13 44.52393 8.29132 14723 ft 305 kts 309°
2026-05-07 18:14 44.55143 8.24723 14404 ft 301 kts 309°
2026-05-07 18:14 44.56168 8.23077 14294 ft 300 kts 309°
2026-05-07 18:14 44.57690 8.20637 14133 ft 298 kts 309°
2026-05-07 18:14 44.59049 8.18450 13777 ft 299 kts 309°
2026-05-07 18:15 44.60402 8.16266 13408 ft 298 kts 309°
2026-05-07 18:15 44.61776 8.14047 13044 ft 297 kts 309°
2026-05-07 18:15 44.63129 8.11860 12690 ft 296 kts 310°
2026-05-07 18:15 44.64468 8.09694 12347 ft 294 kts 310°
2026-05-07 18:16 44.65831 8.07489 12180 ft 282 kts 310°
2026-05-07 18:16 44.67120 8.05405 12095 ft 272 kts 310°
2026-05-07 18:16 44.68357 8.03404 11855 ft 273 kts 310°
2026-05-07 18:16 44.69602 8.01390 11528 ft 272 kts 310°
2026-05-07 18:17 44.70843 7.99383 11209 ft 270 kts 310°
2026-05-07 18:17 44.72062 7.97411 10897 ft 269 kts 310°
2026-05-07 18:17 44.73278 7.95441 10587 ft 267 kts 310°
2026-05-07 18:17 44.74493 7.93471 10277 ft 265 kts 310°
2026-05-07 18:18 44.75552 7.91385 9929 ft 263 kts 290°
2026-05-07 18:18 44.75799 7.88890 9600 ft 260 kts 261°
2026-05-07 18:18 44.75263 7.86458 9301 ft 257 kts 248°
2026-05-07 18:18 44.74593 7.84134 8998 ft 256 kts 248°
2026-05-07 18:19 44.73920 7.81811 8906 ft 258 kts 248°
2026-05-07 18:19 44.73245 7.79451 8932 ft 260 kts 248°
2026-05-07 18:19 44.72652 7.77072 8746 ft 262 kts 261°
2026-05-07 18:19 44.72826 7.74546 8333 ft 263 kts 293°
2026-05-07 18:20 44.73869 7.72478 8013 ft 261 kts 313°
2026-05-07 18:20 44.75143 7.70683 7700 ft 261 kts 315°
2026-05-07 18:20 44.76443 7.68873 7380 ft 261 kts 315°
2026-05-07 18:20 44.77717 7.67063 7089 ft 259 kts 315°
2026-05-07 18:21 44.78953 7.65283 6870 ft 252 kts 315°
2026-05-07 18:21 44.80161 7.63557 6816 ft 239 kts 320°
2026-05-07 18:21 44.81564 7.62521 6655 ft 229 kts 353°
2026-05-07 18:21 44.83138 7.62489 6405 ft 226 kts
2026-05-07 18:22 44.84683 7.62626 6130 ft 225 kts
2026-05-07 18:22 44.85734 7.62728 5947 ft 224 kts
2026-05-07 18:22 44.87767 7.62908 5665 ft 218 kts
2026-05-07 18:22 44.89268 7.63025 5418 ft 215 kts
2026-05-07 18:23 44.90754 7.63129 5212 ft 212 kts
2026-05-07 18:23 44.92221 7.63225 5023 ft 211 kts
2026-05-07 18:23 44.93667 7.63314 4843 ft 210 kts
2026-05-07 18:23 44.95131 7.63403 4661 ft 210 kts
2026-05-07 18:24 44.96592 7.63491 4480 ft 210 kts
2026-05-07 18:24 44.98051 7.63579 4390 ft 209 kts
2026-05-07 18:24 44.99500 7.63668 4418 ft 209 kts
2026-05-07 18:24 45.00960 7.63757 4401 ft 210 kts
2026-05-07 18:25 45.02415 7.63847 4194 ft 209 kts
2026-05-07 18:25 45.03842 7.63936 3943 ft 203 kts
2026-05-07 18:25 45.05197 7.64020 3703 ft 188 kts
2026-05-07 18:25 45.06450 7.64098 3440 ft 174 kts
2026-05-07 18:26 45.07627 7.64172 3174 ft 161 kts
2026-05-07 18:26 45.08690 7.64238 2939 ft 148 kts
2026-05-07 18:26 45.09696 7.64302 2744 ft 143 kts
2026-05-07 18:26 45.10688 7.64366 2575 ft 143 kts
2026-05-07 18:27 45.11679 7.64429 2399 ft 143 kts
2026-05-07 18:27 45.12680 7.64492 2217 ft 143 kts
2026-05-07 18:27 45.13673 7.64555 2034 ft 143 kts
2026-05-07 18:27 45.14228 7.64590 1927 ft 142 kts
2026-05-07 18:28 45.15522 7.64670 1674 ft 141 kts
2026-05-07 18:28 45.16489 7.64732 1482 ft 140 kts
2026-05-07 18:28 45.17474 7.64795 1293 ft 141 kts
2026-05-07 18:28 45.18445 7.64857 1112 ft 140 kts
2026-05-07 18:29 45.19404 7.64921 996 ft 127 kts
2026-05-07 18:29 45.20050 7.64962 994 ft 50 kts
2026-05-07 18:29 45.20158 7.64969 994 ft 5 kts
2026-05-07 18:29 45.20288 7.64978 994 ft 27 kts
2026-05-07 18:30 45.20523 7.64992 994 ft 37 kts
2026-05-07 18:30 45.20763 7.65001 994 ft 32 kts 358°
2026-05-07 18:30 45.20867 7.64921 994 ft 0 kts 302°
2026-05-07 18:31 45.20872 7.64908 994 ft 8 kts 293°
2026-05-07 18:31 45.20863 7.64787 994 ft 14 kts 226°
2026-05-07 18:31 45.20774 7.64736 994 ft 14 kts 182°
2026-05-07 18:31 45.20676 7.64731 994 ft 14 kts 182°
2026-05-07 18:32 45.20576 7.64724 994 ft 14 kts 182°
2026-05-07 18:32 45.20475 7.64716 994 ft 14 kts 182°
2026-05-07 18:32 45.20374 7.64711 994 ft 14 kts 182°
2026-05-07 18:32 45.20268 7.64704 994 ft 15 kts 183°
2026-05-07 18:33 45.20154 7.64696 994 ft 16 kts 182°
2026-05-07 18:33 45.20038 7.64690 994 ft 16 kts 182°
2026-05-07 18:33 45.19921 7.64681 994 ft 16 kts 183°
2026-05-07 18:33 45.19809 7.64677 994 ft 16 kts 173°
2026-05-07 18:34 45.19698 7.64686 994 ft 15 kts 179°
2026-05-07 18:34 45.19588 7.64684 994 ft 15 kts 182°
2026-05-07 18:34 45.19479 7.64678 994 ft 15 kts 184°
2026-05-07 18:34 45.19390 7.64670 994 ft 10 kts 191°
2026-05-07 18:35 45.19337 7.64603 994 ft 11 kts 256°
2026-05-07 18:35 45.19325 7.64522 994 ft 0 kts 257°
2026-05-07 18:35 45.19325 7.64520 994 ft 0 kts 257°